Wind_Speed
1 1 1 2 3 3 3 4 5 6 7 9 10 11 11 11 11 10 10 11 10 9 8 8 8 8 7 7 8 8 8 8 8 8 8 8 8 7 7 6 6 5 5
2 2 2 2 3 4 4 4 5 6 7 9 10 11 11 11 11 10 10 10 10 9 8 8 7 7 7 7 7 7 7 7 7 7 7 7 6 6 6 5 5 4 4
4 4 5 5 5 6 6 6 7 8 8 9 10 11 11 11 11 10 10 9 9 9 8 7 7 7 7 6 6 5 5 5 6 6 6 5 5 5 5 4 3 3 3
7 6 7 7 8 8 8 8 9 9 10 10 10 11 11 11 11 11 11 10 9 9 8 8 7 6 6 6 5 4 4 4 4 4 4 4 4 4 4 3 2 2 1
9 8 8 9 10 11 11 11 11 12 12 11 11 12 12 12 12 12 12 11 10 9 9 8 8 7 6 6 5 4 3 3 3 3 3 3 3 3 2 2 1 1 1
11 11 11 11 12 13 13 13 13 14 14 14 13 13 13 13 13 13 13 12 11 10 10 9 9 8 7 6 5 4 4 3 3 2 2 2 2 2 1 1 0 1 1
13 14 14 14 14 15 15 16 16 16 16 16 16 15 15 15 14 14 14 13 12 11 11 10 10 9 8 7 6 5 4 3 3 3 2 2 1 1 1 1 1 2 2
15 16 16 16 16 17 17 19 19 19 19 18 17 17 17 17 17 16 16 15 14 13 12 11 11 10 9 8 7 6 5 4 3 3 2 1 1 0 1 1 2 2 2
18 19 19 20 20 20 20 20 20 21 21 21 21 19 19 19 19 19 18 17 16 14 14 13 12 12 11 10 9 8 6 6 4 4 3 2 1 1 1 2 2 2 2
21 21 21 21 22 23 23 23 23 23 23 23 23 22 21 21 21 21 20 19 18 17 16 15 14 13 12 12 11 9 8 7 6 5 4 3 2 2 2 2 2 2 3
22 24 24 24 25 25 26 26 27 26 26 26 25 24 23 23 22 23 23 22 21 20 19 18 16 15 14 14 13 12 10 8 7 6 6 4 4 3 3 3 2 3 3
25 26 26 26 27 28 29 30 29 29 29 28 27 27 27 26 25 25 24 25 24 22 21 20 19 17 16 16 15 14 12 11 9 8 7 6 5 4 4 4 3 3 3
26 27 28 28 29 30 31 32 32 32 32 32 31 30 30 28 28 28 27 26 26 25 23 23 22 20 19 17 17 16 14 13 11 10 9 8 7 7 6 5 4 4 4
27 28 29 30 31 32 33 34 34 35 35 35 35 35 33 32 31 30 30 29 28 28 26 24 24 22 21 20 19 18 17 15 14 12 11 10 9 8 8 7 6 5 5
27 27 29 30 31 32 33 34 35 36 37 38 38 38 37 36 34 34 31 30 30 29 27 25 26 25 24 23 22 21 20 18 17 15 14 13 11 10 10 9 8 7 7
27 27 28 29 29 30 31 32 34 35 36 38 39 39 39 38 38 36 36 34 33 32 30 28 27 26 25 25 25 24 23 21 20 18 17 15 14 13 12 11 10 9 9
26 26 27 27 27 28 29 30 31 33 35 36 37 38 39 40 39 38 38 37 36 34 32 31 31 28 28 27 27 26 25 24 23 21 19 18 17 15 14 13 12 12 11
24 24 25 25 26 26 27 27 28 29 30 33 35 37 37 39 39 40 39 39 37 36 34 33 32 30 30 29 29 28 27 27 26 24 23 21 20 18 17 16 14 14 13
23 23 24 24 23 23 24 24 24 25 26 28 31 33 35 37 38 39 39 40 39 38 37 36 35 33 32 31 30 30 30 29 28 27 26 24 23 21 20 18 17 16 15
22 23 23 23 22 22 22 22 22 22 23 25 26 29 31 34 35 37 38 39 40 39 39 37 37 36 35 34 32 32 32 31 30 30 28 27 26 25 23 22 20 19 18
22 22 22 22 22 22 21 20 20 20 21 22 24 27 29 31 33 35 36 37 38 38 39 39 38 37 37 36 35 33 33 34 33 32 30 29 28 27 26 25 24 22 21
22 22 22 22 21 21 20 19 19 19 19 20 21 23 26 28 30 32 35 36 37 38 39 39 40 40 39 38 37 36 35 34 34 34 33 32 31 30 29 27 26 25 24
22 22 22 21 21 20 19 18 18 17 17 17 18 19 21 24 27 29 31 34 37 38 39 40 41 41 41 40 39 37 37 36 35 35 35 34 33 32 31 30 29 27 26
22 22 22 22 21 20 19 17 16 15 15 15 15 16 17 19 21 24 27 30 33 35 38 40 41 42 42 41 41 40 39 37 36 35 35 36 35 34 33 32 31 30 29
23 22 22 22 21 20 19 18 16 15 13 12 12 13 14 15 18 20 23 26 29 31 34 37 39 41 41 42 41 41 40 38 36 38 36 36 36 36 36 35 34 32 31
23 22 22 22 22 21 20 19 17 16 14 13 11 11 11 12 15 17 19 22 24 27 30 33 36 39 40 40 39 40 41 40 37 38 37 36 36 36 36 36 35 33 32
Wind_Direction
71 117 141 157 168 175 182 190 191 191 196 196 198 200 201 202 204 208 212 215 216 221 231 242 252 259 267 274 277 276 279 285 290 295 301 304 306 308 308 305 307 310 309
275 249 224 206 209 212 213 213 214 214 211 210 209 208 208 207 207 208 212 215 220 225 233 241 249 255 263 272 274 275 279 284 287 292 297 302 306 308 309 305 300 298 299
275 260 245 234 229 228 228 227 224 225 223 221 220 218 216 215 214 215 217 220 224 227 233 237 243 249 257 266 269 274 278 282 286 289 293 301 308 309 311 307 296 288 289
278 269 257 244 240 238 236 237 235 232 231 230 229 226 223 223 223 223 223 224 225 227 231 235 240 244 249 256 261 268 274 278 285 288 292 300 311 315 314 303 283 268 260
279 271 263 253 246 242 240 241 240 236 235 235 235 233 231 230 229 228 228 227 227 227 230 232 236 240 242 248 253 256 263 275 287 287 287 300 313 324 327 312 272 230 215
281 274 271 268 263 252 246 244 243 240 238 238 237 237 236 235 234 233 232 230 230 230 231 232 233 235 236 240 244 247 251 263 277 273 278 293 313 327 331 333 216 181 183
282 278 273 270 268 261 255 253 247 244 243 241 241 240 240 239 238 237 235 233 232 231 231 231 231 231 233 235 236 239 246 249 257 255 265 283 301 331 359 48 140 163 163
281 277 273 269 266 264 261 259 256 251 248 246 246 245 242 242 242 240 238 236 235 233 231 230 230 230 233 234 234 235 239 242 241 241 248 259 265 267 72 98 128 143 146
281 278 273 270 269 266 264 265 263 259 256 252 248 247 246 244 244 242 240 239 238 235 233 234 232 232 233 234 234 233 233 236 233 233 235 230 217 178 128 120 131 141 146
281 279 278 272 269 267 265 265 264 262 260 258 255 252 250 247 245 245 242 240 240 238 236 236 235 233 234 235 235 233 231 233 232 231 228 219 207 187 159 148 145 147 158
284 282 278 272 271 270 269 268 266 264 262 261 259 255 255 255 252 249 245 241 241 240 239 236 235 235 235 235 235 234 231 229 230 228 225 218 210 199 182 168 164 165 166
285 282 279 275 273 271 270 270 269 267 265 264 261 258 258 256 254 253 248 243 241 241 240 237 235 235 235 235 235 234 232 229 228 227 226 223 218 210 195 181 175 175 169
287 284 280 277 275 272 271 270 268 267 264 263 262 261 261 258 255 253 251 247 244 242 239 238 235 234 235 235 235 234 233 230 229 228 226 225 223 219 210 198 190 186 177
291 288 284 280 278 276 274 271 270 267 266 265 264 262 261 259 256 255 253 251 247 243 240 237 235 234 235 235 234 234 233 232 229 228 227 226 224 222 218 210 204 196 188
294 291 287 283 281 278 277 274 272 268 266 265 264 262 261 259 256 254 254 252 249 245 243 241 237 235 236 235 233 233 233 233 231 229 227 226 225 224 222 218 214 209 201
299 296 293 290 286 282 279 276 273 269 266 265 263 261 259 258 257 255 254 253 251 247 243 242 239 236 235 234 233 234 233 232 232 230 228 227 226 226 224 223 221 217 213
305 303 299 295 291 287 283 280 276 271 266 264 262 260 259 257 256 254 252 251 250 248 244 241 238 237 236 235 235 236 234 231 231 230 228 228 228 228 227 226 224 222 220
312 309 306 303 298 293 288 284 279 273 268 264 261 260 258 256 254 252 251 250 248 246 244 241 238 237 237 237 237 236 235 233 231 230 230 231 229 229 229 228 227 225 224
318 316 314 311 306 301 295 289 283 276 271 266 262 259 257 255 253 252 251 250 247 244 242 240 239 236 236 237 237 235 235 233 230 230 230 231 230 230 230 231 230 228 226
324 322 319 316 312 308 303 296 288 281 274 269 265 261 257 255 253 252 250 249 247 244 243 241 239 237 236 237 237 236 235 233 232 231 231 232 231 231 231 232 232 231 229
331 329 327 323 319 316 310 303 296 288 280 273 267 262 258 256 253 251 249 248 246 245 244 242 238 237 237 236 235 235 236 235 233 232 232 232 232 231 231 232 232 233 232
339 337 335 332 328 324 318 312 304 296 288 279 271 266 261 257 253 251 249 247 246 245 243 242 240 238 237 236 234 235 236 235 234 234 233 232 233 233 233 233 233 234 234
349 346 345 342 339 334 328 321 313 306 297 286 278 271 264 259 255 251 249 247 246 245 242 240 239 238 237 236 235 236 236 235 234 235 234 233 233 233 233 233 234 234 234
356 355 354 353 351 347 344 339 331 323 312 299 288 279 269 262 258 253 250 248 246 245 243 240 238 237 236 236 235 235 235 235 234 234 234 233 233 234 233 233 234 235 234
1 1 1 0 359 357 355 352 347 340 332 320 304 291 278 268 261 257 253 249 247 244 243 240 237 235 235 235 236 236 236 235 235 234 234 233 233 234 234 233 234 234 234
4 6 6 6 6 4 3 1 358 354 349 339 325 308 292 279 269 263 256 251 248 245 243 240 237 235 234 234 235 236 236 236 236 234 233 234 233 233 233 232 232 232 234
Height
5911 5910 5909 5909 5908 5908 5908 5908 5908 5908 5908 5908 5908 5908 5908 5908 5908 5908 5908 5908 5909 5909 5909 5909 5909 5908 5908 5908 5907 5907 5906 5906 5906 5905 5904 5904 5903 5902 5901 5901 5900 5899 5899
5911 5910 5909 5908 5908 5908 5907 5907 5907 5907 5907 5907 5907 5907 5907 5907 5907 5907 5907 5907 5907 5907 5907 5907 5907 5907 5907 5906 5906 5905 5905 5905 5904 5904 5903 5903 5902 5901 5901 5900 5899 5899 5898
5909 5908 5908 5907 5907 5906 5906 5906 5906 5906 5906 5906 5906 5906 5906 5905 5905 5905 5906 5906 5906 5906 5906 5906 5906 5906 5905 5905 5905 5904 5904 5904 5903 5903 5902 5902 5901 5900 5900 5899 5898 5898 5898
5908 5907 5906 5906 5905 5905 5905 5905 5905 5905 5905 5904 5904 5904 5904 5904 5904 5904 5904 5904 5904 5904 5904 5904 5904 5904 5904 5904 5904 5903 5903 5903 5902 5902 5901 5901 5900 5900 5899 5898 5898 5898 5897
5906 5905 5904 5903 5903 5903 5903 5903 5902 5902 5902 5902 5902 5902 5902 5902 5902 5902 5902 5902 5902 5902 5902 5903 5903 5903 5903 5903 5902 5902 5902 5902 5901 5901 5901 5900 5900 5899 5898 5898 5897 5897 5897
5904 5903 5902 5901 5901 5900 5900 5899 5899 5899 5899 5899 5900 5900 5900 5900 5900 5900 5900 5900 5900 5900 5901 5901 5901 5901 5901 5901 5901 5901 5901 5901 5901 5900 5900 5899 5899 5898 5898 5897 5897 5897 5897
5901 5900 5898 5898 5897 5897 5896 5896 5895 5896 5896 5896 5896 5896 5897 5897 5897 5897 5898 5898 5898 5898 5898 5899 5899 5899 5900 5900 5900 5900 5900 5900 5900 5899 5899 5899 5898 5898 5898 5897 5897 5897 5896
5898 5896 5895 5894 5893 5893 5892 5892 5892 5891 5891 5892 5892 5892 5893 5893 5894 5894 5895 5895 5895 5895 5896 5896 5897 5897 5898 5898 5898 5899 5899 5899 5899 5899 5898 5898 5898 5897 5897 5897 5897 5897 5896
5894 5892 5891 5890 5889 5889 5888 5887 5887 5886 5887 5887 5887 5887 5888 5889 5890 5890 5891 5892 5892 5893 5893 5894 5894 5895 5896 5896 5897 5897 5897 5898 5898 5898 5897 5897 5897 5897 5897 5897 5896 5897 5897
5890 5888 5887 5885 5884 5883 5883 5882 5882 5882 5881 5881 5882 5882 5883 5883 5884 5886 5887 5888 5888 5889 5890 5891 5892 5893 5893 5894 5895 5895 5896 5896 5896 5896 5896 5896 5896 5896 5896 5896 5896 5897 5897
5885 5884 5882 5881 5879 5878 5877 5876 5876 5876 5876 5875 5876 5876 5877 5878 5879 5880 5881 5883 5884 5885 5886 5887 5888 5890 5890 5891 5892 5893 5893 5894 5894 5895 5895 5895 5896 5896 5896 5896 5896 5896 5896
5880 5878 5876 5875 5874 5872 5871 5870 5870 5869 5869 5869 5870 5871 5871 5872 5873 5875 5876 5877 5879 5880 5881 5883 5884 5886 5887 5888 5889 5890 5891 5892 5892 5893 5894 5894 5895 5895 5895 5895 5896 5896 5896
5874 5872 5870 5869 5867 5866 5865 5864 5863 5863 5863 5863 5863 5864 5865 5866 5867 5868 5870 5872 5873 5875 5876 5878 5880 5881 5883 5884 5886 5887 5888 5889 5890 5891 5892 5892 5893 5894 5894 5895 5895 5895 5896
5868 5866 5864 5862 5860 5859 5858 5857 5856 5856 5855 5855 5856 5857 5858 5859 5861 5862 5864 5865 5867 5869 5871 5873 5874 5876 5878 5880 5881 5883 5885 5886 5887 5888 5890 5890 5891 5892 5893 5894 5894 5894 5895
5863 5860 5857 5855 5853 5851 5850 5849 5848 5848 5848 5848 5848 5849 5850 5852 5854 5855 5857 5858 5860 5862 5864 5867 5869 5871 5873 5875 5877 5879 5881 5883 5884 5885 5887 5888 5889 5890 5891 5892 5893 5893 5894
5857 5854 5851 5848 5846 5844 5842 5841 5839 5839 5839 5839 5839 5840 5841 5843 5845 5847 5849 5851 5853 5856 5858 5861 5863 5865 5867 5869 5872 5874 5876 5878 5880 5882 5884 5885 5887 5888 5889 5890 5891 5892 5893
5851 5847 5844 5841 5839 5836 5834 5832 5831 5830 5830 5830 5830 5831 5832 5834 5836 5839 5841 5843 5846 5848 5851 5854 5856 5859 5861 5863 5866 5869 5871 5874 5876 5878 5880 5882 5883 5885 5886 5888 5889 5890 5891
5845 5842 5838 5835 5832 5829 5826 5824 5822 5821 5821 5821 5821 5822 5823 5825 5827 5829 5832 5835 5837 5840 5844 5847 5850 5852 5855 5857 5860 5863 5866 5868 5871 5873 5875 5877 5879 5881 5883 5885 5886 5888 5889
5841 5837 5833 5829 5825 5822 5819 5817 5815 5814 5813 5812 5813 5813 5814 5816 5818 5820 5823 5826 5829 5832 5835 5839 5843 5845 5848 5851 5853 5856 5860 5863 5865 5868 5871 5873 5875 5877 5879 5881 5883 5885 5886
5837 5832 5828 5824 5820 5816 5813 5810 5808 5807 5806 5805 5805 5805 5806 5807 5809 5811 5814 5817 5820 5823 5827 5830 5835 5838 5841 5844 5847 5850 5853 5856 5859 5862 5865 5868 5870 5872 5875 5877 5879 5881 5883
5833 5829 5824 5820 5815 5811 5807 5804 5802 5800 5799 5798 5798 5797 5798 5799 5800 5802 5805 5808 5811 5814 5818 5822 5826 5830 5833 5837 5840 5843 5847 5849 5853 5856 5859 5862 5864 5867 5870 5872 5875 5877 5879
5830 5826 5821 5816 5811 5807 5803 5799 5797 5794 5793 5792 5791 5790 5790 5791 5792 5794 5796 5799 5802 5805 5809 5813 5817 5821 5825 5829 5832 5836 5839 5843 5846 5849 5852 5855 5858 5861 5864 5867 5869 5872 5874
5828 5823 5818 5813 5808 5803 5799 5795 5792 5790 5788 5786 5785 5784 5784 5784 5785 5786 5788 5790 5793 5796 5800 5804 5808 5812 5817 5820 5824 5828 5832 5835 5838 5842 5845 5848 5851 5855 5858 5861 5864 5866 5869
5827 5822 5816 5811 5806 5801 5796 5792 5788 5786 5783 5781 5780 5779 5778 5778 5778 5779 5781 5782 5785 5787 5791 5795 5799 5803 5808 5812 5816 5820 5823 5826 5830 5834 5838 5841 5844 5848 5851 5854 5857 5860 5863
5826 5821 5816 5810 5805 5800 5795 5791 5787 5783 5780 5777 5776 5774 5773 5773 5773 5773 5774 5775 5777 5779 5782 5786 5790 5794 5799 5803 5807 5811 5815 5818 5822 5826 5830 5833 5837 5840 5844 5847 5850 5854 5857
5826 5821 5815 5810 5805 5799 5794 5790 5786 5782 5778 5775 5773 5771 5769 5768 5768 5768 5768 5769 5771 5772 5775 5778 5781 5785 5790 5795 5799 5803 5807 5811 5814 5818 5822 5825 5828 5832 5836 5840 5843 5847 5850